FW7079 Weather Reports


Display with metric or nautical units.
time (UTC)temp
F
wind
direction
speed
MPH
gust
MPH
rain 1hr
in
rain 24hr
in
rain mn
in
humidity
%
barometer
mb
20260508114550 55 0 0.0 1.0 0.00 0.00 0.00 83 1013.4
20260508113057 55 0 0.0 1.0 0.00 0.00 0.00 82 1013.4
20260508111557 56 0 0.0 1.0 0.00 0.00 0.00 81 1013.3
20260508110059 56 0 0.0 3.0 0.00 0.00 0.00 81 1013.2
20260508104552 56 0 0.0 1.0 0.00 0.00 0.00 81 1013.2
20260508103120 56 0 0.0 0.0 0.00 0.00 0.00 80 1013.0
20260508101604 57 0 0.0 3.0 0.00 0.00 0.00 79 1012.9
20260508100058 58 0 0.0 1.0 0.00 0.00 0.00 78 1012.9
20260508094612 58 0 0.0 4.0 0.00 0.00 0.00 78 1012.8
20260508093057 58 142 0.0 4.0 0.00 0.00 0.00 77 1012.9
20260508091555 58 126 0.0 3.0 0.00 0.00 0.00 77 1012.8
20260508090128 59 101 0.0 3.0 0.00 0.00 0.00 76 1012.8
20260508084554 59 0 0.0 2.0 0.00 0.00 0.00 75 1012.9
20260508083115 58 155 0.0 5.0 0.00 0.00 0.00 75 1012.9
20260508081555 57 142 0.0 3.0 0.00 0.00 0.00 76 1013.0
20260508080054 58 0 0.0 2.0 0.00 0.00 0.00 74 1013.1
20260508074554 58 0 0.0 2.0 0.00 0.00 0.00 74 1013.3
20260508073050 58 142 1.0 3.0 0.00 0.00 0.00 73 1013.3
20260508071550 58 142 0.0 1.0 0.00 0.00 0.00 71 1013.5
20260508070053 59 144 0.0 4.0 0.00 0.00 0.00 70 1013.7
20260508064556 59 142 1.0 3.0 0.00 0.00 0.00 70 1014.0
20260508063052 58 137 0.0 2.0 0.00 0.00 0.00 71 1014.1
20260508061556 56 0 0.0 1.0 0.00 0.00 0.00 73 1014.2
20260508060052 55 0 0.0 1.0 0.00 0.00 0.00 74 1014.0
20260508054602 54 0 0.0 0.0 0.00 0.00 0.00 74 1014.0
20260508053055 55 0 0.0 1.0 0.00 0.00 0.00 74 1014.1
20260508051555 53 0 0.0 2.0 0.00 0.00 0.00 76 1014.1
20260508050057 53 0 0.0 0.0 0.00 0.00 0.00 76 1014.1
20260508044550 54 0 0.0 1.0 0.00 0.00 0.00 76 1014.2
20260508043059 54 0 0.0 1.0 0.00 0.00 0.00 75 1014.3
20260508041600 54 0 0.0 0.0 0.00 0.00 0.00 74 1014.4
20260508040056 55 0 0.0 0.0 0.00 0.00 0.00 71 1014.5
20260508034604 55 0 0.0 0.0 0.00 0.00 0.00 71 1014.5
20260508033054 56 0 0.0 0.0 0.00 0.00 0.00 73 1014.4
20260508031557 55 0 0.0 0.0 0.00 0.00 0.00 70 1014.6
20260508030057 56 0 0.0 0.0 0.00 0.00 0.00 71 1014.4
20260508024556 57 0 0.0 0.0 0.00 0.00 0.00 68 1014.3
20260508023055 58 0 0.0 0.0 0.00 0.00 0.00 66 1014.0
20260508021555 59 0 0.0 0.0 0.00 0.00 0.00 64 1014.1
20260508020057 61 0 0.0 0.0 0.00 0.00 0.00 62 1014.0
20260508014555 62 0 0.0 0.0 0.00 0.00 0.00 57 1013.9
20260508013054 64 0 0.0 0.0 0.00 0.00 0.00 54 1013.9
20260508011549 67 0 0.0 0.0 0.00 0.00 0.00 50 1013.7
20260508010053 69 0 0.0 1.0 0.00 0.00 0.00 47 1013.6
20260508004553 70 141 0.0 2.0 0.00 0.00 0.00 43 1013.4
20260508003100 71 126 0.0 2.0 0.00 0.00 0.00 44 1013.3
20260508001558 72 0 0.0 3.0 0.00 0.00 0.00 39 1013.2
20260508000054 73 147 0.0 2.0 0.00 0.00 0.00 38 1013.3
20260507234551 73 107 1.0 4.0 0.00 0.00 0.00 37 1013.5
20260507233056 74 169 1.0 4.0 0.00 0.00 0.00 37 1013.6
20260507231555 74 136 1.0 3.0 0.00 0.00 0.00 37 1013.7
20260507230059 74 132 1.0 3.0 0.00 0.00 0.00 36 1013.8
20260507224613 74 131 0.0 2.0 0.00 0.00 0.00 34 1014.0
20260507223059 74 50 0.0 2.0 0.00 0.00 0.00 35 1014.0
20260507221554 75 0 0.0 3.0 0.00 0.00 0.00 36 1014.1
20260507220105 75 142 1.0 5.0 0.00 0.00 0.00 36 1014.3
20260507214604 75 109 1.0 5.0 0.00 0.00 0.00 35 1014.3
20260507213101 75 0 0.0 4.0 0.00 0.00 0.00 37 1014.5
20260507211618 75 0 1.0 3.0 0.00 0.00 0.00 35 1014.7
20260507210057 74 223 1.0 3.0 0.00 0.00 0.00 36 1014.9
20260507204605 74 136 0.0 5.0 0.00 0.00 0.00 35 1015.2
20260507203101 75 288 1.0 5.0 0.00 0.00 0.00 35 1015.5
20260507201612 75 105 1.0 3.0 0.00 0.00 0.00 35 1015.8
20260507194558 74 0.0 0.0 0.00 0.00 0.00 40 1016.3
20260507193053 74 0.0 0.0 0.00 0.00 0.00 38 1016.5
20260507191556 73 0.0 0.0 0.00 0.00 0.00 42 1016.7
20260507190053 72 0.0 0.0 0.00 0.00 0.00 42 1017.1
20260507184550 73 56 1.0 7.0 0.00 0.00 0.00 43 1017.3
20260507183053 72 298 1.0 5.0 0.00 0.00 0.00 41 1017.5
20260507181551 72 192 2.0 6.0 0.00 0.00 0.00 42 1017.9
20260507180051 71 251 0.0 0.0 0.00 0.00 0.00 44 1018.1
20260507174553 71 0.0 0.0 0.00 0.00 0.00 43 1018.4
20260507173101 70 0.0 0.0 0.00 0.00 0.00 43 1018.5
20260507171558 69 0.0 0.0 0.00 0.00 0.00 46 1018.8
20260507170052 69 142 0.0 8.0 0.00 0.00 0.00 46 1018.9
20260507164554 67 0.0 0.0 0.00 0.00 0.00 48 1019.3
20260507163049 67 120 1.0 7.0 0.00 0.00 0.00 48 1019.4
20260507161603 66 111 2.0 7.0 0.00 0.00 0.00 49 1019.6
20260507160100 66 153 1.0 5.0 0.00 0.00 0.00 51 1019.6
20260507154555 65 131 1.0 7.0 0.00 0.00 0.00 53 1019.6
20260507153058 63 59 2.0 7.0 0.00 0.00 0.00 52 1019.8
20260507151555 62 60 0.0 4.0 0.00 0.00 0.00 60 1019.9
20260507150055 60 94 1.0 4.0 0.00 0.00 0.00 61 1020.1
20260507144556 58 142 1.0 3.0 0.00 0.00 0.00 64 1020.3
20260507143105 56 0 0.0 2.0 0.00 0.00 0.00 72 1020.4
20260507141556 54 0 0.0 1.0 0.00 0.00 0.00 78 1020.6
20260507140108 51 0 0.0 1.0 0.00 0.00 0.00 87 1020.7
20260507134556 49 0 0.0 1.0 0.00 0.00 0.00 92 1020.8
20260507133054 47 0 0.0 1.0 0.00 0.00 0.00 93 1020.7
20260507131559 45 0 0.0 1.0 0.00 0.00 0.00 94 1020.7
20260507130055 44 0 0.0 0.0 0.00 0.00 0.00 93 1020.7
20260507124559 42 0 0.0 0.0 0.00 0.00 0.00 93 1020.6
20260507123058 40 0 0.0 0.0 0.00 0.00 0.00 93 1020.3
20260507121555 39 0 0.0 0.0 0.00 0.00 0.00 92 1020.1
20260507120053 39 0 0.0 0.0 0.00 0.00 0.00 91 1020.0